Weather History for Port Angeles, WA

Change the Weather History Date:

Wednesday, November 28, 2012

  Actual Average Record
Temperature  
Mean Temperature 40 °F -  
Max Temperature 46 °F 46 °F 54 °F (1959)
Min Temperature 34 °F 34 °F 13 °F (1985)
Degree Days  
Heating Degree Days 25    
Moisture  
Dew Point 39 °F    
Average Humidity 90    
Maximum Humidity 97    
Minimum Humidity 82    
Precipitation  
Precipitation 0.02 in - - ()
Sea Level Pressure  
Sea Level Pressure 29.68 in    
Wind  
Wind Speed 3 mph (South)    
Max Wind Speed 8 mph    
Max Gust Speed -    
Visibility 9 miles    
Events Rain    
Averages and records for this station are not official NWS values.
T = Trace of Precipitation, MM = Missing Value Source: NWS Daily Summary

Daily Weather History Graph

Daily Weather History Graph

Search for Another Location

Airport:

Trip Planner

Search our weather history database for the weather conditions in past years. The results will help you decide how hot, cold, wet, or windy it might be!

Date:

Astronomy

Nov. 28, 2012 Rise Set
Actual Time 7:40 AM PST 4:23 PM PST
Civil Twilight 7:04 AM PST 4:59 PM PST
Nautical Twilight 6:25 AM PST 5:38 PM PST
Astronomical Twilight 5:48 AM PST 6:15 PM PST
Moon 4:42 PM PST (11/28) 7:42 AM PST (11/28)
Length of Visible Light 9h 54m
Length of Day
8h 43m
Full, 100% of the Moon is Illuminated
Nov 28
Full
Dec 6
Last Quarter
Dec 13
New
Dec 19
First Quarter
Dec 28
Full

Hourly Weather History & Observations

Time (PST) Temp. Windchill Dew Point Humidity Pressure Visibility Wind Dir Wind Speed Gust Speed Precip Events Conditions
12:25 AM 37.0 °F - 35.1 °F 93% 29.90 in 10.0 mi Calm Calm - N/A   Mostly Cloudy
12:51 AM 37.4 °F - 35.6 °F 93% 29.89 in 10.0 mi Calm Calm - N/A   Scattered Clouds
12:53 AM 37.0 °F - 35.1 °F 93% 29.90 in 10.0 mi Calm Calm - N/A   Scattered Clouds
1:53 AM 37.9 °F 32.7 °F 35.1 °F 89% 29.89 in 10.0 mi WSW 6.9 mph - N/A   Clear
2:53 AM 37.9 °F - 35.1 °F 89% 29.87 in 10.0 mi Calm Calm - N/A   Clear
3:53 AM 34.0 °F - 33.1 °F 96% 29.84 in 9.0 mi Calm Calm - N/A   Clear
4:53 AM 35.1 °F - 33.1 °F 92% 29.82 in 9.0 mi Calm Calm - N/A   Partly Cloudy
5:53 AM 36.0 °F 32.1 °F 34.0 °F 93% 29.79 in 8.0 mi SSE 4.6 mph - N/A   Mostly Cloudy
6:53 AM 37.0 °F 33.3 °F 35.1 °F 93% 29.77 in 9.0 mi SE 4.6 mph - N/A   Mostly Cloudy
7:53 AM 39.0 °F - 37.0 °F 93% 29.74 in 10.0 mi Calm Calm - N/A   Clear
8:53 AM 39.9 °F 36.7 °F 37.9 °F 93% 29.73 in 10.0 mi SE 4.6 mph - N/A   Overcast
9:53 AM 43.0 °F 41.3 °F 39.0 °F 86% 29.70 in 10.0 mi ESE 3.5 mph - N/A   Overcast
10:11 AM 43.0 °F 40.3 °F 39.0 °F 86% 29.69 in 10.0 mi SE 4.6 mph - N/A   Overcast
10:53 AM 45.0 °F 41.2 °F 39.9 °F 82% 29.68 in 10.0 mi ESE 6.9 mph - N/A   Partly Cloudy
11:32 AM 45.0 °F 41.8 °F 39.9 °F 82% 29.64 in 10.0 mi East 5.8 mph - N/A   Mostly Cloudy
11:53 AM 45.0 °F 43.5 °F 39.9 °F 82% 29.65 in 10.0 mi East 3.5 mph - N/A   Overcast
12:53 PM 45.0 °F 41.2 °F 39.9 °F 82% 29.61 in 10.0 mi East 6.9 mph - N/A   Overcast
1:53 PM 45.0 °F 43.5 °F 39.9 °F 82% 29.58 in 10.0 mi SE 3.5 mph - N/A   Overcast
2:53 PM 45.0 °F - 39.9 °F 82% 29.57 in 10.0 mi Calm Calm - 0.00 in Rain Light Rain
3:53 PM 44.1 °F 40.1 °F 41.0 °F 89% 29.58 in 10.0 mi WSW 6.9 mph - 0.00 in Rain Light Rain
4:26 PM 44.1 °F 40.1 °F 41.0 °F 89% 29.56 in 10.0 mi West 6.9 mph - 0.00 in Rain Light Rain
4:53 PM 44.1 °F 39.5 °F 42.1 °F 93% 29.57 in 10.0 mi SW 8.1 mph - 0.00 in Rain Light Rain
5:08 PM 44.1 °F 39.5 °F 41.0 °F 89% 29.55 in 10.0 mi WSW 8.1 mph - 0.00 in Rain Light Rain
5:53 PM 44.1 °F 40.1 °F 41.0 °F 89% 29.56 in 10.0 mi SW 6.9 mph - 0.00 in Rain Light Rain
6:53 PM 44.1 °F 40.8 °F 41.0 °F 89% 29.57 in 10.0 mi WSW 5.8 mph - 0.02 in Rain Light Rain
7:53 PM 44.1 °F 42.5 °F 42.1 °F 93% 29.59 in 8.0 mi WSW 3.5 mph - 0.00 in Rain Light Rain
8:53 PM 45.0 °F 41.8 °F 42.1 °F 90% 29.61 in 10.0 mi West 5.8 mph - 0.00 in Rain Light Rain
9:53 PM 44.1 °F 40.8 °F 42.1 °F 93% 29.63 in 6.0 mi WSW 5.8 mph - 0.00 in Rain Light Rain
10:17 PM 45.0 °F 42.6 °F 43.0 °F 93% 29.63 in 10.0 mi SW 4.6 mph - 0.00 in   Overcast
10:28 PM 45.0 °F - 44.1 °F 97% 29.62 in 8.0 mi Calm Calm - 0.00 in Rain Light Rain
10:35 PM 45.0 °F 43.5 °F 43.0 °F 93% 29.63 in 8.0 mi SSW 3.5 mph - 0.00 in Rain Light Rain
10:53 PM 46.0 °F - 44.1 °F 93% 29.65 in 10.0 mi Calm Calm - 0.00 in Rain Light Rain
11:39 PM 45.0 °F 43.5 °F 44.1 °F 97% 29.64 in 4.0 mi South 3.5 mph - 0.00 in Rain Light Rain
11:53 PM 46.0 °F - 44.1 °F 93% 29.64 in 4.0 mi Calm Calm - 0.00 in Rain Light Rain